LPNTSAT-001 (IOD-1)

Last updated on Tue Sep 22 2026 00:03:30 GMT+0000 (Coordinated Universal Time)

1 68408U 26065A 26264.13838618 .00001648 00000+0 81845-4 0 9991 2 68408 97.3852 142.5608 0017308 34.5996 325.6361 15.18934958 26820
UTC large
Height (km)
Speed (km/s)
/
Latitude / Longitude
Inclination (degrees)
Orbital Period (minutes)
Azimuth
Elevation
Range (km)
Doppler Factor

Next 0 passes for location: London (51.5072 / 0.1276)

No passes found over London.
LPNTSAT-001 (IOD-1)